Погода в Киброне

Франция     47°29′07″N   3°07′16″W
темп.,
°C
ветер,
м/с
пор.,
м/с
влажн.,
%
обл.,
%
осадки,
мм/ч
давл.,
гПа
погр.,
м
8 декабря, ср
ср801:00+10з14166531 1.9 9981745
04:00+8зсз61177100 0.9 998961
07:00+9зсз11126795 1.8 9991298
10:00+9зсз91267100 0.3 10001191
13:00+9сз8965100 0.6 10021032
16:00+9зсз101262100 0.4 10041483
19:00+9сз1013632 0.4 10071430
22:00+9сз1012615 0.0 10091594
9 декабря, чт
чт901:00+9сз811595 0.0 10101417
04:00+10зсз81157100 0.0 10111640
07:00+9з7971100 0.0 10111112
10:00+9зюз1285100 1.3 1010263
13:00+10зсз4687100 1.7 1009424
16:00+11юз91093100 1.1 1007618
19:00+12з91596100 3.5 1005507
22:00+13з162291100 5.2 1003885
10 декабря, пт
пт1001:00+11сз131979100 5.2 10051457
04:00+10сз131974100 0.1 10051496
07:00+10сз132072100 0.2 10061724
10:00+9сз131974100 0.3 10091712
13:00+9сз121762100 0.3 10111751
16:00+10сз111561100 0.0 10121619
19:00+9сз10136627 0.0 10151427
22:00+9сз8117099 0.0 10171007
11 декабря, сб
сб1101:00+9сз71073100 0.0 1019906
04:00+10сз6973100 0.0 1020882
07:00+10зсз5774100 0.0 1020712
10:00+11зюз4680100 0.0 1022653
13:00+11юз6889100 0.3 1022517
16:00+12юз689659 0.3 1021224
19:00+13з4589100 0.6 102367
22:00+13зюз579299 0.2 102493
12 декабря, вс
вс1201:00+13з588744 0.2 1024114
04:00+13з698683 0.0 1025142
07:00+13з5786100 0.1 1026128
10:00+13зюз6782100 0.1 1027125
13:00+13юз5681100 0.1 102791
16:00+13юз4580100 0.1 102660
19:00+13ю33790 0.1 102734
22:00+12ю6780100 0.0 1026144